This is the latest recevied weather packets stored in our database for station/object K7NDG. If no packets are shown the sender has not sent any weather packets the latest 1 day(s).
| Time | Temp. | Humidity | Pressure | Rain* | Wind** | Luminosity | Snow |
|---|---|---|---|---|---|---|---|
| 1778015550 | 17.22° C | 73% | 1017.4 hPa | 0 mm | 1.34 m/s, 269° | 272 W/m² | - |
| 1778015246 | 17.22° C | 72% | 1017.5 hPa | 0 mm | 1.34 m/s, 261° | 261 W/m² | - |
| 1778014943 | 16.67° C | 73% | 1017.5 hPa | 0 mm | 1.34 m/s, 264° | 243 W/m² | - |
| 1778014640 | 16.67° C | 72% | 1017.6 hPa | 0 mm | 0 m/s | 235 W/m² | - |
| 1778014338 | 16.67° C | 74% | 1017.5 hPa | 0 mm | 0.45 m/s, 246° | 229 W/m² | - |
| 1778014034 | 16.67° C | 75% | 1017.5 hPa | 0 mm | 1.34 m/s, 266° | 226 W/m² | - |
| 1778013733 | 16.11° C | 75% | 1017.7 hPa | 0 mm | 0 m/s | 199 W/m² | - |
| 1778013429 | 16.11° C | 75% | 1017.4 hPa | 0 mm | 0 m/s | 185 W/m² | - |
| 1778013126 | 16.11° C | 75% | 1017.8 hPa | 0 mm | 0 m/s | 160 W/m² | - |
| 1778012822 | 16.11° C | 75% | 1017.8 hPa | 0 mm | 0 m/s | 179 W/m² | - |
| 1778012518 | 16.11° C | 76% | 1017.5 hPa | 0 mm | 0.45 m/s, 258° | 194 W/m² | - |
| 1778012214 | 15.56° C | 77% | 1017.7 hPa | 0 mm | 0 m/s | 187 W/m² | - |
| 1778011913 | 15.56° C | 77% | 1017.6 hPa | 0 mm | 0.89 m/s, 263° | 181 W/m² | - |
| 1778011611 | 15° C | 78% | 1017.5 hPa | 0 mm | 0 m/s | 180 W/m² | - |
| 1778011307 | 15° C | 78% | 1017.8 hPa | 0 mm | 0.89 m/s, 245° | 153 W/m² | - |
| 1778011003 | 15° C | 77% | 1017.6 hPa | 0 mm | 0 m/s | 127 W/m² | - |
| 1778010700 | 15° C | 78% | 1017.6 hPa | 0 mm | 0 m/s | 135 W/m² | - |
| 1778010398 | 15° C | 77% | 1017.6 hPa | 0 mm | 0.45 m/s, 265° | 125 W/m² | - |
| 1778010094 | 15° C | 78% | 1017.7 hPa | 0 mm | 0 m/s | 124 W/m² | - |
| 1778009790 | 15° C | 78% | 1017.8 hPa | 0 mm | 0 m/s | 131 W/m² | - |
| 1778009487 | 15° C | 78% | 1017.6 hPa | 0 mm | 0 m/s | 110 W/m² | - |
| 1778009186 | 15° C | 78% | 1017.7 hPa | 0 mm | 1.34 m/s, 271° | 86 W/m² | - |
| 1778008883 | 15° C | 78% | 1017.6 hPa | 0 mm | 0 m/s | 81 W/m² | - |
| 1778008582 | 15° C | 78% | 1017.8 hPa | 0 mm | 0 m/s | 91 W/m² | - |
| 1778008279 | 15° C | 78% | 1017.7 hPa | 0 mm | 0 m/s | 91 W/m² | - |
* Rain latest hour (hover to see other rain measurements)
** Current wind speed in m/s (hover to see current wind gust speed)